Terug naar catalogus

STARLINK-36159

ActiefCommunicatieVLEO
NORAD 67079·PAYLOAD·🇺🇸 United States

Gelanceerd Dec 14, 2025 vanaf Vandenberg Space Force Base

Loading…

Volgende Passages (komende 24 uur)

TLE

VersSource: CelesTrak SupGP

Epoch: Sep 15, 2026, 02:36 UTC

1 67079C 25298E   26258.10881944 -.00040965  00000+0 -34325-2 0  2585
2 67079  69.9994 256.7227 0003989 265.7477 116.3708 14.98354930    18

Volg STARLINK-36159 in realtime met AllMySat

Download on the App Store